Location: Drummondville
(45.8830°N, 72.4830°W)
Time: 14:41:37
(UTC-05:00)

OTV 5 (USA 277) - Pass Details

Date: 15 November 2017
Orbit: 404 x 417 km, 43.0° (Epoch: 07 September)

Event Time Altitude Azimuth Distance (km) Brightness Sun altitude
Exits shadow 04:24:50 28° 115° (ESE) 798 ? -25.2°
Drops below altitude 10° 04:26:36 10° 100° (E) 1,456 ? -24.9°
Sets 04:28:44 0° 95° (E) 2,315 ? -24.6°
